Location: Sternwarte ZA, Rosenfeld-Brittheim
(48.2889°N, 8.6789°E)
Time: 18:27:40
(UTC+01:00)

ISS - Visible Passes

Search period start: 21 November 2017 00:00
Search period end: 01 December 2017 00:00
Orbit: 402 x 407 km, 51.6° (Epoch: 22 November)

Date Brightness Start Highest point End Pass type
(mag) Time Alt. Az. Time Alt. Az. Time Alt. Az.
27 Nov -1.2 19:07:09 10° SSW 19:07:52 15° SSW 19:07:52 15° SSW visible
28 Nov -2.1 18:15:28 10° S 18:17:52 20° SE 18:17:52 20° SE visible
29 Nov -1.4 17:24:31 10° SSE 17:25:48 12° SE 17:27:04 10° ESE visible
29 Nov -2.2 18:58:28 10° SW 19:00:26 32° SW 19:00:26 32° SW visible
30 Nov -3.0 18:06:21 10° SW 18:09:25 37° SSE 18:10:16 31° ESE visible
30 Nov -0.4 19:42:34 10° W 19:42:55 12° W 19:42:55 12° W visible
